ボアッティーニ彗星

C/2013 J5 ( Boattini )

English version
Home page
Updated on April 29, 2014

---------------------------------------------------------------------

・ プロフィール

発見日 2013年5月13日
発見光度 20.4等
発見者 Andrea Boattini (Catalina Sky Survey)

・ 写真集

・ 軌道要素

Epoch 2012 Dec. 19.0 TT = JDT 2456280.5
T 2012 Nov. 30.07570 TT                                 MPC
q   4.9049996            (2000.0)            P               Q
z  +0.0001497      Peri.   19.17327     -0.44627393     -0.58628571
 +/-0.0003200      Node   256.76371     -0.88466639     +0.17512201
e   0.9992659      Incl.  136.00867     -0.13492574     +0.79094965
From 64 observations 2013 May 13-July 1, mean residual 0".6.

・ 光度変化

        m1 = 9.5 + 5 logΔ + 10.0 log r

---------------------------------------------------------------------

軌道要素はM.P.E.C. 2013-N23に掲載されたものです。
光度グラフはComet for Windowsで作成したものです。

---------------------------------------------------------------------

Copyright(C) Seiichi Yoshida (comet@aerith.net). All rights reserved.